{"data":{"norad_id":66448,"intl_designator":"2025-259AC","name":"STARLINK-35355","alt_names":[],"object_type":"PAYLOAD","status":"ACTIVE","operator":null,"country":"US","launch_date":"2025-11-11","launch_site_code":"AFETR","launch_vehicle":null,"mission":null,"orbit_class":"UNKNOWN","rcs_meters":null,"size_class":null,"mass_kg":null,"dimensions":null,"purposes":["comms"],"wikipedia_slug":null,"has_3d_model":false,"image_url":null,"decayed_at":null,"tle_current":{"epoch":"2026-09-20T23:25:07.407552Z","epoch_age_seconds":52333,"freshness":"FRESH","line1":"1 66448U 25259AC  26263.97578018  .00015916  00000+0  58629-3 0  9999","line2":"2 66448  42.9984 251.8264 0000911 288.8961  71.1792 15.27600008 49354","mean_motion":15.27600008,"eccentricity":9.11e-5,"inclination_deg":42.9984,"raan_deg":251.8264,"arg_perigee_deg":288.8961,"mean_anomaly_deg":71.1792,"bstar":0.00058629,"rev_number":4935,"period_min":94.265514038934,"perigee_km":482.36413694822,"apogee_km":483.61423413923,"semimajor_km":6861.1261855437,"source":"CELESTRAK","updated_at":"2026-09-21T09:00:35.911494Z"}}}